Location: Unspecified
(0.0000°N, 0.0000°E)
Time: 05:59:50
(UTC+00:00)

Envisat - Pass Details

Date: 16 October 2019
Orbit: 764 x 766 km, 98.1° (Epoch: 14 October)

Event Time Altitude Azimuth Distance (km) Brightness Sun altitude
Rises 18:05:19 0° 155° (SSE) 3,230 6.1 -4.9°
Reaches altitude 10° 18:07:44 10° 148° (SSE) 2,301 5.3 -5.5°
Maximum altitude 18:12:31 42° 78° (ENE) 1,081 3.4 -6.6°
Drops below altitude 10° 18:17:15 10° 8° (N) 2,291 5.3 -7.8°
Sets 18:19:39 0° 1° (N) 3,213 6.1 -8.4°
